Flag for Germany Weather past 2 weeks in Bad Oeynhausen, North Rhine-Westphalia, Germany

Now
23 °F

Cold.


Feels Like: 18 °F
Forecast: 26 / 35 °F
Wind: 3 mph from South

Location: Bueckeburg

Current Time: Dec 28, 2014 at 6:20:03 PM

Latest Report: Dec 28, 2014 at 5:20 PM


Visibility: 4 mi

Pressure: 30.39 "Hg

Humidity: 93%

Dew point: 21 °F

Location of Bad OeynhausenLocation

Historic Weather in Bad Oeynhausen — Graph

°F

Bad Oeynhausen temperature yesterday

Maximum temperature yesterday: 36 °F (at 11:20 AM)
Minimum temperature yesterday: 27 °F (at 9:20 PM)
Average temperature yesterday: 32 °F

Past Weeks' High & Low Weather Summary

 TemperatureHumidityPressure
High54 °F (Dec 18, 2:20 PM)100% (Dec 26, 9:20 AM)30.39 "Hg (Dec 26, 9:20 AM)
Low21 °F (Dec 28, 5:20 AM)61% (Dec 15, 8:20 AM)29.53 "Hg (Dec 17, 2:20 PM)
Average42 °F84%29.94 "Hg
* Reported Dec 13 4:20 PM — Dec 28 4:20 PM, Bad Oeynhausen, Weather by CustomWeather, © 2014

Note: Actual official high and low records may vary slightly from our data, if they occured in-between our weather recording intervals... More about our weather records

Advertising

Bad Oeynhausen weather history for previous 24 hours

 ConditionsComfort  
Time TempWeatherWind HumidityBarometerVisibility
4:20 PM
Dec 28
25 °FCold.2 mph86%30.39 "Hg6 mi
3:20 PM27 °FChilly.5 mph86%30.36 "HgN/A
2:20 PM28 °FChilly.3 mph80%30.33 "HgN/A
1:20 PM27 °FChilly.1 mph80%30.33 "HgN/A
12:20 PM27 °FChilly.2 mph80%30.33 "HgN/A
11:20 AM25 °FCold.3 mph80%30.30 "HgN/A
10:20 AM23 °FCold.2 mph80%30.27 "Hg5 mi
9:20 AM21 °FCold.3 mph86%30.24 "Hg6 mi
8:20 AM21 °FCold.6 mph86%30.18 "Hg6 mi
7:20 AM21 °FCold.9 mph86%30.12 "Hg6 mi
6:20 AM21 °FCold.10 mph86%30.09 "HgN/A
5:20 AM21 °FCold.12 mph86%30.07 "HgN/A
4:20 AM23 °FCold.12 mph86%30.04 "HgN/A
3:20 AM23 °FCold.12 mph86%29.98 "HgN/A
2:20 AM25 °FCold.14 mph80%29.95 "HgN/A
1:20 AM25 °FCold.12 mph80%29.92 "HgN/A
12:20 AM27 °FChilly.14 mph74%29.89 "HgN/A
11:20 PM
Dec 27
27 °FChilly.14 mph80%29.86 "HgN/A
10:20 PM27 °FChilly.15 mph80%29.80 "HgN/A
9:20 PM27 °FChilly.17 mph80%29.77 "HgN/A
8:20 PM28 °FChilly.18 mph74%29.74 "HgN/A
7:20 PM30 °FChilly.18 mph75%29.71 "HgN/A
6:20 PM30 °FChilly.13 mph69%29.68 "HgN/A
Weather by CustomWeather, © 2014

See weather overviewHow to use our weather pages